User: anonymous   Login
Location: Unspecified
(0.0000°N, 0.0000°E)
Time: 22:23:07
(UTC+00:00)
Language:

STARLINK-11660 [DTC] - Orbit

View from above orbital plane
View from above orbital plane
View from above satellite
View from above satellite

Ground track
Ground track

The orbit is defined by the following mean orbital elements,

1 63761U          26145.53524966 +.00000000 +00000-0 +11559-2 0 00007
2 63761  43.0008 188.8341 0001325 263.3864  96.6852 15.70869248    02
Epoch (UTC): 25 May 2026 12:50:45
Eccentricity: 0.0001325
inclination: 43.0008°
perigee height: 356 km
apogee height: 357 km
right ascension of ascending node: 188.8341°
argument of perigee: 263.3864°
revolutions per day: 15.70869248
mean anomaly at epoch: 96.6852°

The dashed part of the orbit path shows where the satellite is in the earth's shadow,  

DLR